GW6644 Weather Reports


time (UTC)temp
C
wind
direction
speed
KPH
gust
KPH
rain 1hr
cm
rain 24hr
cm
rain mn
cm
humidity
%
barometer
mb
20260506153352 10 94 6.4 11.3 0.00 0.30 0.30 92 1013.7
20260506152849 10 37 6.4 9.7 0.00 0.30 0.30 92 1013.4
20260506152346 10 72 6.4 8.0 0.18 0.30 0.30 91 1013.7
20260506151844 10 25 4.8 4.8 0.30 0.30 0.30 91 1013.5
20260506151341 10 44 1.6 3.2 0.61 0.30 0.30 90 1014.0
20260506150839 10 15 9.7 12.9 1.50 0.28 0.28 89 1013.0
20260506150335 11 56 9.7 12.9 1.27 0.20 0.20 88 1013.9
20260506145832 11 43 3.2 3.2 0.18 0.03 0.03 87 1014.8
20260506145328 11 62 0.0 1.6 0.00 0.00 0.00 86 1015.3
20260506144826 11 42 3.2 3.2 0.00 0.00 0.00 86 1014.8
20260506144322 11 51 4.8 8.0 0.00 0.00 0.00 86 1014.5
20260506143821 11 58 4.8 4.8 0.00 0.00 0.00 86 1014.3
20260506143317 11 58 0.0 1.6 0.00 0.00 0.00 86 1014.4
20260506142816 11 34 8.0 12.9 0.00 0.00 0.00 85 1013.3
20260506142313 11 38 6.4 12.9 0.00 0.00 0.00 85 1012.7
20260506141811 11 52 6.4 11.3 0.00 0.00 0.00 84 1012.8
20260506141309 11 53 9.7 12.9 0.00 0.00 0.00 84 1013.0
20260506140807 11 56 12.9 14.5 0.00 0.00 0.00 84 1013.4
20260506140303 11 62 4.8 8.0 0.00 0.00 0.00 84 1013.5
20260506135801 11 39 4.8 11.3 0.00 0.00 0.00 84 1013.8
20260506135256 11 53 3.2 4.8 0.00 0.00 0.00 83 1013.6
20260506134754 11 39 4.8 4.8 0.00 0.00 0.00 83 1013.4
20260506134250 11 66 6.4 9.7 0.00 0.00 0.00 84 1013.4
20260506133747 11 80 4.8 4.8 0.00 0.00 0.00 84 1012.8
20260506133244 11 65 4.8 4.8 0.00 0.00 0.00 84 1012.7
20260506132740 11 28 12.9 17.7 0.00 0.00 0.00 84 1012.5
20260506132238 11 52 16.1 17.7 0.00 0.00 0.00 84 1012.3
20260506131736 10 56 11.3 14.5 0.00 0.00 0.00 84 1012.6
20260506131231 10 61 8.0 9.7 0.00 0.00 0.00 84 1012.7
20260506130729 10 28 11.3 12.9 0.00 0.00 0.00 84 1012.7
20260506130225 10 39 11.3 20.9 0.00 0.00 0.00 84 1012.2
20260506125724 10 38 17.7 20.9 0.00 0.00 0.00 84 1012.0
20260506125221 10 80 8.0 9.7 0.00 0.00 0.00 83 1012.3
20260506124719 11 70 6.4 8.0 0.00 0.00 0.00 83 1011.7
20260506124217 11 64 12.9 14.5 0.00 0.00 0.00 83 1012.0
20260506123713 11 28 12.9 17.7 0.00 0.00 0.00 83 1011.6
20260506123213 11 18 8.0 11.3 0.00 0.00 0.00 82 1012.0
20260506122709 11 10 4.8 8.0 0.00 0.00 0.00 82 1011.8
20260506122207 11 40 11.3 16.1 0.00 0.00 0.00 81 1011.7
20260506121704 11 53 4.8 9.7 0.00 0.00 0.00 81 1011.8
20260506121200 11 70 8.0 11.3 0.00 0.00 0.00 80 1011.4
20260506120658 11 36 4.8 8.0 0.00 0.00 0.00 79 1011.4
20260506120155 12 11 8.0 11.3 0.00 0.00 0.00 78 1011.7
20260506115654 12 23 3.2 8.0 0.00 0.00 0.00 77 1011.6
20260506115152 12 45 8.0 11.3 0.00 0.00 0.00 77 1011.7
20260506114648 12 30 6.4 9.7 0.00 0.00 0.00 77 1011.4
20260506114146 12 44 4.8 4.8 0.00 0.00 0.00 76 1011.3
20260506113645 12 48 14.5 20.9 0.00 0.00 0.00 76 1011.1
20260506113142 12 61 16.1 17.7 0.00 0.00 0.00 75 1011.2
20260506112637 12 63 8.0 11.3 0.00 0.00 0.00 76 1011.0
20260506112136 12 19 6.4 11.3 0.00 0.00 0.00 75 1010.9
20260506111633 12 39 12.9 17.7 0.00 0.00 0.00 75 1010.9
20260506111130 12 50 9.7 16.1 0.00 0.00 0.00 75 1010.8
20260506110628 12 35 11.3 12.9 0.00 0.00 0.00 75 1010.4
20260506110125 12 69 6.4 8.0 0.00 0.00 0.00 75 1010.6
20260506105622 12 353 8.0 9.7 0.00 0.00 0.00 75 1010.6
20260506105118 12 65 6.4 9.7 0.00 0.00 0.00 75 1010.4
20260506104617 12 41 6.4 11.3 0.00 0.00 0.00 75 1010.2
20260506104114 12 53 4.8 8.0 0.00 0.00 0.00 75 1010.1
20260506103611 12 56 8.0 11.3 0.00 0.00 0.00 75 1010.1
20260506103108 13 52 3.2 4.8 0.00 0.00 0.00 75 1010.2
20260506102606 13 44 4.8 4.8 0.00 0.00 0.00 75 1009.9
20260506102103 13 58 4.8 4.8 0.00 0.00 0.00 76 1010.0
20260506101600 13 44 11.3 12.9 0.00 0.00 0.00 76 1009.8
20260506101057 13 37 4.8 8.0 0.00 0.00 0.00 76 1009.7
20260506100555 13 67 4.8 8.0 0.00 0.00 0.00 76 1009.5
20260506100053 13 38 4.8 8.0 0.00 0.00 0.00 77 1009.7
20260506095551 13 49 6.4 9.7 0.00 0.00 0.00 77 1009.5
20260506095047 13 53 4.8 8.0 0.00 0.00 0.00 77 1009.5
20260506094545 13 61 4.8 9.7 0.00 0.00 0.00 77 1009.0
20260506094043 13 77 8.0 9.7 0.00 0.00 0.00 77 1009.3
20260506093541 13 34 4.8 4.8 0.00 0.00 0.00 77 1009.3
20260506093038 13 39 4.8 4.8 0.00 0.00 0.00 76 1009.5
20260506092536 13 55 9.7 11.3 0.00 0.00 0.00 76 1009.5
20260506092032 13 56 8.0 12.9 0.00 0.00 0.00 77 1009.4
20260506091531 13 38 4.8 9.7 0.00 0.00 0.00 77 1009.2
20260506091028 13 50 1.6 1.6 0.00 0.00 0.00 77 1009.2
20260506090526 13 57 4.8 4.8 0.00 0.00 0.00 77 1009.2
20260506090021 13 36 4.8 4.8 0.00 0.00 0.00 77 1009.2
20260506085519 13 59 1.6 1.6 0.00 0.00 0.00 77 1009.2
20260506085015 13 57 4.8 8.0 0.00 0.00 0.00 77 1009.0
20260506084512 13 43 11.3 12.9 0.00 0.00 0.00 77 1009.2
20260506084008 13 43 9.7 12.9 0.00 0.00 0.00 77 1009.2
20260506083506 13 57 4.8 4.8 0.00 0.00 0.00 77 1008.7
20260506083003 13 73 8.0 12.9 0.00 0.00 0.00 77 1008.9
20260506082459 13 38 1.6 1.6 0.00 0.00 0.00 77 1008.8
20260506081955 13 43 4.8 8.0 0.00 0.00 0.00 77 1008.8
20260506081454 13 61 3.2 4.8 0.00 0.00 0.00 77 1008.7
20260506080951 13 55 4.8 4.8 0.00 0.00 0.00 78 1009.0
20260506080448 14 57 4.8 8.0 0.00 0.00 0.00 77 1008.6
20260506073431 14 53 9.7 14.5 0.00 0.00 0.00 77 1008.7
20260506072929 14 41 3.2 3.2 0.00 0.00 0.00 78 1008.6
20260506072426 14 52 4.8 8.0 0.00 0.00 0.00 78 1008.5
20260506071924 14 80 3.2 3.2 0.00 0.00 0.00 79 1008.0
20260506071421 14 68 3.2 3.2 0.00 0.00 0.00 79 1008.3
20260506070918 14 60 1.6 1.6 0.00 0.00 0.00 79 1008.5
20260506070415 14 18 6.4 9.7 0.00 0.00 0.00 80 1008.5
20260506062352 15 63 9.7 12.9 0.00 0.00 0.00 80 1008.4
20260506061848 15 32 9.7 11.3 0.00 0.00 0.00 80 1008.4
20260506061345 15 34 8.0 9.7 0.00 0.00 0.00 80 1008.5
20260506060843 15 52 4.8 9.7 0.00 0.00 0.00 80 1008.4
20260506060341 15 356 8.0 11.3 0.00 0.00 0.00 80 1008.5
20260506051313 15 61 8.0 12.9 0.00 0.00 0.00 79 1008.6
20260506050810 16 50 9.7 11.3 0.00 0.00 0.00 79 1008.6
20260506050308 16 69 6.4 9.7 0.00 0.00 0.00 79 1008.7
20260506044758 16 67 9.7 14.5 0.00 0.00 0.00 79 1008.2
20260506044255 16 45 8.0 11.3 0.00 0.00 0.00 78 1008.3
20260506043752 16 60 11.3 14.5 0.00 0.00 0.00 78 1008.3
20260506043250 16 62 4.8 4.8 0.00 0.00 0.00 78 1008.1
20260506042749 16 52 12.9 16.1 0.00 0.00 0.00 78 1008.3
20260506042247 16 51 9.7 14.5 0.00 0.00 0.00 77 1008.4
20260506041745 16 35 11.3 14.5 0.00 0.00 0.00 77 1008.3
20260506041241 16 22 12.9 14.5 0.00 0.00 0.00 77 1008.3
20260506040739 17 73 11.3 16.1 0.00 0.00 0.00 77 1008.4
20260506040236 17 56 8.0 11.3 0.00 0.00 0.00 77 1008.4
20260506035733 17 77 6.4 9.7 0.00 0.00 0.00 77 1008.2
20260506035230 17 13 6.4 12.9 0.00 0.00 0.00 77 1008.0
20260506034726 17 62 1.6 3.2 0.00 0.00 0.00 77 1007.8
20260506034224 17 29 11.3 14.5 0.00 0.00 0.00 77 1007.9
20260506033721 17 29 9.7 12.9 0.00 0.00 0.00 77 1007.9
20260506033218 17 62 8.0 9.7 0.00 0.00 0.00 77 1007.7
20260506032715 17 76 4.8 9.7 0.00 0.00 0.00 76 1007.6
20260506032212 18 34 6.4 14.5 0.00 0.00 0.00 76 1007.4
20260506031708 18 85 8.0 14.5 0.00 0.00 0.00 75 1007.3
20260506031206 18 52 8.0 12.9 0.00 0.00 0.00 75 1007.0
20260506030704 18 54 12.9 16.1 0.00 0.00 0.00 74 1007.2
20260506030201 18 353 6.4 8.0 0.00 0.00 0.00 74 1006.9
20260506025658 18 48 6.4 8.0 0.00 0.00 0.00 73 1007.2
20260506025154 18 59 6.4 11.3 0.00 0.00 0.00 73 1006.9
20260506024651 18 60 11.3 16.1 0.00 0.00 0.00 73 1006.7
20260506024148 19 80 8.0 16.1 0.00 0.00 0.00 72 1006.7
20260506023644 19 53 12.9 16.1 0.00 0.00 0.00 72 1006.7
20260506023141 19 45 3.2 8.0 0.00 0.00 0.00 72 1006.5
20260506022638 19 60 8.0 12.9 0.00 0.00 0.00 72 1006.2
20260506022136 19 49 8.0 16.1 0.00 0.00 0.00 71 1006.5
20260506021634 19 54 8.0 12.9 0.00 0.00 0.00 71 1006.2
20260506021130 20 68 6.4 11.3 0.00 0.00 0.00 70 1006.0
20260506020627 20 50 3.2 3.2 0.00 0.00 0.00 70 1006.0
20260506020125 20 51 9.7 11.3 0.00 0.00 0.00 69 1006.0
20260506015622 20 52 11.3 14.5 0.00 0.00 0.00 69 1006.0
20260506015119 20 82 4.8 8.0 0.00 0.00 0.00 70 1005.8
20260506014617 20 54 4.8 4.8 0.00 0.00 0.00 71 1005.6
20260506014112 20 59 14.5 16.1 0.00 0.00 0.00 70 1005.3
20260506013611 20 61 8.0 12.9 0.00 0.00 0.00 71 1005.3
20260506013107 20 43 14.5 16.1 0.00 0.00 0.00 71 1005.6
20260506012603 21 55 16.1 17.7 0.00 0.00 0.00 70 1005.2
20260506012100 21 56 9.7 12.9 0.00 0.00 0.00 70 1005.1
20260506011558 21 65 3.2 3.2 0.00 0.00 0.00 70 1004.9
20260506011054 21 35 6.4 12.9 0.00 0.00 0.00 70 1004.9
20260506010554 21 31 11.3 16.1 0.00 0.00 0.00 70 1004.8
20260506010050 21 30 4.8 8.0 0.00 0.00 0.00 69 1004.6
20260506005547 22 52 9.7 12.9 0.00 0.00 0.00 69 1004.4
20260506005043 22 74 11.3 14.5 0.00 0.00 0.00 68 1004.1
20260506004540 22 70 11.3 14.5 0.00 0.00 0.00 68 1004.2
20260506004037 22 53 11.3 16.1 0.00 0.00 0.00 68 1004.4
20260506003533 22 84 6.4 8.0 0.00 0.00 0.00 67 1004.2
20260506003030 22 52 8.0 9.7 0.00 0.00 0.00 67 1004.0
20260506002526 22 34 6.4 8.0 0.00 0.00 0.00 67 1003.9
20260506002021 23 44 11.3 17.7 0.00 0.00 0.00 67 1004.2
20260506001518 23 21 4.8 8.0 0.00 0.00 0.00 67 1004.1
20260506001015 23 54 8.0 16.1 0.00 0.00 0.00 65 1003.6
20260506000513 24 59 12.9 17.7 0.00 0.00 0.00 63 1003.7
20260506000010 24 49 1.6 3.2 0.00 0.00 0.00 63 1003.7
20260505235508 24 73 6.4 9.7 0.00 0.00 0.00 62 1003.5
20260505235004 24 87 8.0 12.9 0.00 0.00 0.00 62 1003.5
20260505234502 25 53 4.8 8.0 0.00 0.00 0.00 62 1003.7
20260505233958 25 52 4.8 4.8 0.00 0.00 0.00 61 1003.6
20260505233456 25 70 8.0 12.9 0.00 0.00 0.00 60 1003.6
20260505232953 25 56 9.7 16.1 0.00 0.00 0.00 60 1003.6
20260505232451 25 28 8.0 11.3 0.00 0.00 0.00 60 1003.4
20260505231948 25 63 4.8 8.0 0.00 0.00 0.00 59 1003.6
20260505231445 26 77 1.6 1.6 0.00 0.00 0.00 58 1003.6
20260505230943 26 69 6.4 9.7 0.00 0.00 0.00 58 1003.5
20260505230441 26 43 8.0 11.3 0.00 0.00 0.00 58 1003.1
20260505225937 26 11 6.4 11.3 0.00 0.00 0.00 57 1003.2
20260505225434 27 66 4.8 8.0 0.00 0.00 0.00 58 1003.4
20260505224930 27 95 1.6 3.2 0.00 0.00 0.00 57 1003.2
20260505224427 27 84 6.4 9.7 0.00 0.00 0.00 57 1002.9
20260505223924 27 40 4.8 8.0 0.00 0.00 0.00 57 1002.9
20260505223421 28 64 1.6 1.6 0.00 0.00 0.00 58 1002.9
20260505222917 28 41 8.0 9.7 0.00 0.00 0.00 57 1002.7
20260505222414 28 60 6.4 11.3 0.00 0.00 0.00 55 1002.5
20260505221910 29 96 1.6 1.6 0.00 0.00 0.00 52 1002.7
20260505221407 30 27 4.8 4.8 0.00 0.00 0.00 48 1002.4
20260505220904 30 344 0.0 1.6 0.00 0.00 0.00 47 1002.3
20260505220401 30 50 4.8 9.7 0.00 0.00 0.00 46 1002.5
20260505215859 30 71 4.8 8.0 0.00 0.00 0.00 45 1002.2
20260505215357 30 45 4.8 8.0 0.00 0.00 0.00 44 1002.4
20260505214854 30 32 3.2 4.8 0.00 0.00 0.00 45 1002.3
20260505214352 29 60 4.8 8.0 0.00 0.00 0.00 46 1002.4
20260505213849 30 43 3.2 3.2 0.00 0.00 0.00 45 1002.5
20260505213347 30 82 1.6 3.2 0.00 0.00 0.00 46 1002.4
20260505212842 31 5 9.7 11.3 0.00 0.00 0.00 45 1002.3
20260505212339 32 77 4.8 9.7 0.00 0.00 0.00 44 1002.5
20260505211835 32 191 1.6 3.2 0.00 0.00 0.00 47 1002.5
20260505211334 32 190 0.0 1.6 0.00 0.00 0.00 46 1002.4
20260505210830 33 88 1.6 1.6 0.00 0.00 0.00 45 1002.5
20260505210327 33 177 0.0 1.6 0.00 0.00 0.00 45 1002.7
20260505205823 33 156 0.0 1.6 0.00 0.00 0.00 45 1002.9
20260505205322 33 154 0.0 0.0 0.00 0.00 0.00 46 1002.6
20260505204818 33 158 0.0 0.0 0.00 0.00 0.00 47 1002.9
20260505204316 32 154 1.6 1.6 0.00 0.00 0.00 48 1002.9
20260505203814 33 269 1.6 4.8 0.00 0.00 0.00 47 1003.0
20260505203310 32 192 0.0 3.2 0.00 0.00 0.00 48 1003.0
20260505202806 32 135 1.6 1.6 0.00 0.00 0.00 49 1003.1
20260505202306 32 229 3.2 4.8 0.00 0.00 0.00 47 1003.2
20260505201759 32 175 0.0 0.0 0.00 0.00 0.00 48 1003.1
20260505201257 32 185 1.6 1.6 0.00 0.00 0.00 48 1003.3
20260505200755 32 215 3.2 3.2 0.00 0.00 0.00 46 1003.2
20260505200252 32 163 1.6 1.6 0.00 0.00 0.00 49 1003.2
20260505195747 32 164 1.6 3.2 0.00 0.00 0.00 50 1003.5
20260505195245 32 105 3.2 3.2 0.00 0.00 0.00 50 1003.3
20260505194742 31 176 1.6 1.6 0.00 0.00 0.00 54 1003.2
20260505194238 31 154 3.2 4.8 0.00 0.00 0.00 56 1003.4
20260505193734 31 289 8.0 11.3 0.00 0.00 0.00 55 1003.4
20260505193232 31 206 8.0 9.7 0.00 0.00 0.00 53 1003.3
20260505192730 31 279 4.8 8.0 0.00 0.00 0.00 55 1003.2
20260505192227 31 196 3.2 3.2 0.00 0.00 0.00 57 1003.4
20260505191725 31 200 8.0 12.9 0.00 0.00 0.00 55 1003.3
20260505191224 30 198 3.2 4.8 0.00 0.00 0.00 56 1003.2
20260505190719 30 193 4.8 4.8 0.00 0.00 0.00 57 1003.2
20260505190219 30 211 8.0 16.1 0.00 0.00 0.00 56 1003.2
20260505185716 30 214 3.2 3.2 0.00 0.00 0.00 58 1003.3
20260505185212 30 243 4.8 8.0 0.00 0.00 0.00 59 1003.3
20260505184708 30 256 1.6 4.8 0.00 0.00 0.00 59 1003.1
20260505184206 29 234 4.8 8.0 0.00 0.00 0.00 59 1003.3
20260505183703 29 159 1.6 1.6 0.00 0.00 0.00 60 1003.3
20260505183200 29 202 3.2 3.2 0.00 0.00 0.00 61 1003.5
20260505182656 29 205 4.8 8.0 0.00 0.00 0.00 62 1003.4
20260505182154 28 214 3.2 3.2 0.00 0.00 0.00 63 1003.6
20260505181650 28 227 4.8 8.0 0.00 0.00 0.00 64 1003.6
20260505181148 28 268 4.8 8.0 0.00 0.00 0.00 64 1003.5
20260505180643 28 100 3.2 3.2 0.00 0.00 0.00 64 1003.6
20260505180141 28 180 1.6 3.2 0.00 0.00 0.00 66 1003.6
20260505175637 28 188 4.8 8.0 0.00 0.00 0.00 64 1003.7
20260505175133 28 180 1.6 1.6 0.00 0.00 0.00 66 1003.6
20260505174630 27 198 6.4 11.3 0.00 0.00 0.00 66 1003.5
20260505174126 27 237 11.3 14.5 0.00 0.00 0.00 65 1003.4
20260505173623 27 285 3.2 3.2 0.00 0.00 0.00 67 1003.4
20260505173120 27 225 4.8 12.9 0.00 0.00 0.00 67 1003.4
20260505172618 27 231 9.7 14.5 0.00 0.00 0.00 66 1003.7
20260505172114 28 298 11.3 20.9 0.00 0.00 0.00 65 1003.7
20260505171608 28 162 1.6 3.2 0.00 0.00 0.00 65 1003.3
20260505171106 28 251 3.2 3.2 0.00 0.00 0.00 67 1003.5
20260505170603 27 168 4.8 8.0 0.00 0.00 0.00 68 1003.5
20260505170059 27 192 6.4 9.7 0.00 0.00 0.00 66 1003.6
20260505165554 28 124 3.2 4.8 0.00 0.00 0.00 66 1003.6
20260505165050 27 227 4.8 11.3 0.00 0.00 0.00 67 1003.6
20260505164546 27 232 8.0 11.3 0.00 0.00 0.00 67 1003.5
20260505164044 27 210 12.9 17.7 0.00 0.00 0.00 66 1003.3
20260505163543 27 226 9.7 11.3 0.00 0.00 0.00 68 1003.6
20260505163039 27 217 12.9 17.7 0.00 0.00 0.00 67 1003.4
20260505162538 27 239 9.7 16.1 0.00 0.00 0.00 68 1003.4
20260505162035 26 222 11.3 14.5 0.00 0.00 0.00 70 1003.5
20260505161532 26 209 3.2 3.2 0.00 0.00 0.00 71 1003.7
20260505161029 26 227 11.3 16.1 0.00 0.00 0.00 71 1003.4
20260505160527 26 154 9.7 14.5 0.00 0.00 0.00 72 1003.5